Weather History for Phoenix Deer Valley, AZ

Change the Weather History Date:

Monday, December 31, 2012

  Actual Average Record
Temperature  
Mean Temperature 46 °F -  
Max Temperature 52 °F 61 °F 73 °F (1997)
Min Temperature 36 °F 41 °F 30 °F (2010)
Degree Days  
Heating Degree Days 20    
Moisture  
Dew Point 33 °F    
Average Humidity 66    
Maximum Humidity 89    
Minimum Humidity 38    
Precipitation  
Precipitation 0.00 in - - ()
Sea Level Pressure  
Sea Level Pressure 30.09 in    
Wind  
Wind Speed 4 mph (South)    
Max Wind Speed 13 mph    
Max Gust Speed 17 mph    
Visibility 10 miles    
Events      
Averages and records for this station are not official NWS values.
T = Trace of Precipitation, MM = Missing Value Source: NWS Daily Summary

Daily Weather History Graph

Daily Weather History Graph

Search for Another Location

Airport:

Trip Planner

Search our weather history database for the weather conditions in past years. The results will help you decide how hot, cold, wet, or windy it might be!

Date:

Astronomy

Dec. 31, 2012 Rise Set
Actual Time 7:32 AM MST 5:30 PM MST
Civil Twilight 7:05 AM MST 5:58 PM MST
Nautical Twilight 6:34 AM MST 6:29 PM MST
Astronomical Twilight 6:03 AM MST 6:59 PM MST
Moon 8:54 PM MST (12/31) 9:25 AM MST (12/31)
Length of Visible Light 10h 52m
Length of Day
9h 57m
Waning Gibbous, 90% of the Moon is Illuminated
Dec 31
Waning Gibbous
Jan 4
Last Quarter
Jan 11
New
Jan 18
First Quarter
Jan 26
Full

Hourly Weather History & Observations

Time (MST) Temp. Windchill Dew Point Humidity Pressure Visibility Wind Dir Wind Speed Gust Speed Precip Events Conditions
12:53 AM 43.0 °F 38.8 °F 37.0 °F 80% 29.95 in 10.0 mi SE 6.9 mph - N/A   Overcast
1:53 AM 42.1 °F 38.4 °F 37.9 °F 85% 29.94 in 10.0 mi ESE 5.8 mph - N/A   Mostly Cloudy
2:53 AM 42.1 °F 38.4 °F 39.0 °F 89% 29.96 in 10.0 mi SE 5.8 mph - N/A   Mostly Cloudy
3:53 AM 42.1 °F 37.7 °F 39.0 °F 89% 29.97 in 10.0 mi SE 6.9 mph - N/A   Clear
5:53 AM 41.0 °F - 37.9 °F 89% 30.00 in 10.0 mi Calm Calm - N/A   Mostly Cloudy
6:53 AM 39.9 °F 36.7 °F 37.0 °F 89% 30.03 in 10.0 mi East 4.6 mph - N/A   Clear
7:53 AM 39.9 °F 35.8 °F 37.0 °F 89% 30.06 in 10.0 mi SSE 5.8 mph - N/A   Clear
8:53 AM 43.0 °F - 37.9 °F 82% 30.08 in 10.0 mi Calm Calm - N/A   Scattered Clouds
9:08 AM 42.8 °F - 37.4 °F 81% 30.10 in 10.0 mi Calm Calm - N/A   Mostly Cloudy
9:25 AM 42.8 °F - 37.4 °F 81% 30.10 in 10.0 mi Calm Calm - N/A   Overcast
9:53 AM 43.0 °F - 37.9 °F 82% 30.11 in 10.0 mi Calm Calm - N/A   Mostly Cloudy
10:27 AM 44.6 °F - 39.2 °F 81% 30.12 in 10.0 mi Calm Calm - N/A   Scattered Clouds
10:53 AM 46.0 °F - 37.9 °F 73% 30.12 in 10.0 mi Calm Calm - N/A   Mostly Cloudy
11:00 AM 44.6 °F 43.1 °F 37.4 °F 76% 30.13 in 10.0 mi West 3.5 mph - N/A   Partly Cloudy
11:53 AM 46.9 °F - 36.0 °F 66% 30.12 in 10.0 mi SSW 4.6 mph - N/A   Clear
12:36 PM 48.2 °F - 33.8 °F 58% 30.11 in 10.0 mi SW 8.1 mph - N/A   Partly Cloudy
12:53 PM 48.9 °F - 32.0 °F 52% 30.10 in 10.0 mi West 5.8 mph - N/A   Scattered Clouds
1:53 PM 51.1 °F - 30.0 °F 44% 30.08 in 10.0 mi West 6.9 mph 17.3 mph N/A   Partly Cloudy
2:53 PM 52.0 °F - 30.0 °F 43% 30.08 in 10.0 mi SSW 12.7 mph - N/A   Mostly Cloudy
3:53 PM 52.0 °F - 28.9 °F 41% 30.09 in 10.0 mi SW 8.1 mph - N/A   Scattered Clouds
4:53 PM 51.1 °F - 26.1 °F 38% 30.10 in 10.0 mi SSW 6.9 mph - N/A   Partly Cloudy
5:53 PM 48.9 °F - 26.1 °F 41% 30.12 in 10.0 mi SSW 3.5 mph - N/A   Clear
6:53 PM 48.0 °F - 25.0 °F 41% 30.12 in 10.0 mi South 3.5 mph - N/A   Clear
7:53 PM 46.0 °F 44.8 °F 24.1 °F 42% 30.15 in 10.0 mi South 3.5 mph - N/A   Clear
8:53 PM 44.1 °F - 24.1 °F 45% 30.15 in 10.0 mi Calm Calm - N/A   Clear
9:53 PM 42.1 °F - 25.0 °F 51% 30.17 in 10.0 mi Calm Calm - N/A   Clear
10:53 PM 39.0 °F 35.7 °F 26.1 °F 60% 30.18 in 9.0 mi East 4.6 mph - N/A   Clear
11:53 PM 36.0 °F 33.3 °F 27.0 °F 70% 30.19 in 10.0 mi East 3.5 mph - N/A   Clear